Weather History for Atwater, CA

Change the Weather History Date:

Tuesday, October 1, 2013

  Actual Average (KMCE) Record (KMCE)
Temperature  
Mean Temperature 66 °F 68 °F  
Max Temperature 78 °F 84 °F 99 °F (2012)
Min Temperature 55 °F 52 °F 43 °F (2009)
Degree Days  
Heating Degree Days 0    
Month to date heating degree days  
Since 1 July heating degree days  
Cooling Degree Days 2    
Month to date cooling degree days  
Year to date cooling degree days  
Growing Degree Days 16 (Base 50)    
Moisture  
Dew Point 52 °F    
Average Humidity 71    
Maximum Humidity 100    
Minimum Humidity 27    
Precipitation  
Precipitation 0.00 in 0.00 in 0.12 in (2006)
Month to date precipitation 0.00  
Year to date precipitation 8.99  
Since 1 July precipitation 0.31  
Snow  
Snow 0.00 in - - ()
Month to date snowfall  
Since 1 July snowfall  
Since 1 September snowfall  
Snow Depth -    
Sea Level Pressure  
Sea Level Pressure 29.94 in    
Wind  
Wind Speed 7 mph (North)    
Max Wind Speed 12 mph    
Max Gust Speed -    
Visibility 10 miles    
Events      
T = Trace of Precipitation, MM = Missing Value Source: NWS Daily Summary

Daily Weather History Graph

Daily Weather History Graph

Search for Another Location

Airport:

Trip Planner

Search our weather history database for the weather conditions in past years. The results will help you decide how hot, cold, wet, or windy it might be!

Date:

Astronomy

Oct. 01, 2013 Rise Set
Actual Time 6:58 AM PDT 6:44 PM PDT
Civil Twilight 6:32 AM PDT 7:10 PM PDT
Nautical Twilight 6:01 AM PDT 7:41 PM PDT
Astronomical Twilight 5:31 AM PDT 8:11 PM PDT
Moon 3:40 AM PDT (10/1) 4:48 PM PDT (10/1)
Length of Visible Light 12h 38m
Length of Day
11h 46m
Waning Crescent, 11% of the Moon is Illuminated
Oct 1
Waning Crescent
Oct 4
New
Oct 11
First Quarter
Oct 18
Full
Oct 26
Last Quarter

Hourly Weather History & Observations

Time (PDT) Temp. Dew Point Humidity Pressure Visibility Wind Dir Wind Speed Gust Speed Precip Events Conditions
12:15 AM 64.4 °F 62.6 °F 94% 29.95 in 10.0 mi NNE 6.9 mph - N/A   Clear
12:35 AM 62.6 °F 62.6 °F 100% 29.95 in 10.0 mi NNE 6.9 mph - N/A   Clear
12:55 AM 62.6 °F 62.6 °F 100% 29.95 in 10.0 mi NNE 6.9 mph - N/A   Clear
1:15 AM 62.6 °F 62.6 °F 100% 29.95 in 10.0 mi NNE 5.8 mph - N/A   Clear
1:35 AM 62.6 °F 62.6 °F 100% 29.96 in 10.0 mi North 5.8 mph - N/A   Clear
1:55 AM 62.6 °F 62.6 °F 100% 29.96 in 10.0 mi NNE 6.9 mph - N/A   Clear
2:15 AM 62.6 °F 62.6 °F 100% 29.96 in 10.0 mi NNE 5.8 mph - N/A   Clear
2:35 AM 62.6 °F 62.6 °F 100% 29.96 in 10.0 mi NNE 5.8 mph - N/A   Clear
2:55 AM 62.6 °F 62.6 °F 100% 29.95 in 10.0 mi NNE 5.8 mph - N/A   Clear
3:15 AM 60.8 °F 60.8 °F 100% 29.95 in 10.0 mi NE 5.8 mph - N/A   Clear
3:35 AM 60.8 °F 60.8 °F 100% 29.95 in 10.0 mi NNE 5.8 mph - N/A   Clear
3:55 AM 60.8 °F 60.8 °F 100% 29.94 in 10.0 mi NNE 5.8 mph - N/A   Clear
4:15 AM 60.8 °F 60.8 °F 100% 29.94 in 10.0 mi NNE 6.9 mph - N/A   Clear
4:35 AM 60.8 °F 57.2 °F 88% 29.94 in 10.0 mi NNE 8.1 mph - N/A   Clear
4:55 AM 60.8 °F 55.4 °F 82% 29.95 in 10.0 mi NNE 6.9 mph - N/A   Clear
5:15 AM 59.0 °F 53.6 °F 82% 29.95 in 10.0 mi North 6.9 mph - N/A   Clear
5:35 AM 57.2 °F 53.6 °F 88% 29.96 in 10.0 mi North 5.8 mph - N/A   Clear
5:55 AM 55.4 °F 53.6 °F 94% 29.96 in 10.0 mi North 6.9 mph - N/A   Clear
6:15 AM 55.4 °F 53.6 °F 94% 29.96 in 10.0 mi North 5.8 mph - N/A   Clear
6:35 AM 57.2 °F 51.8 °F 82% 29.96 in 10.0 mi NNE 5.8 mph - N/A   Clear
6:45 AM 57.2 °F 51.8 °F 82% 29.97 in 10.0 mi North 5.8 mph - N/A   Clear
6:55 AM 57.2 °F 50.0 °F 77% 29.97 in 10.0 mi North 5.8 mph - N/A   Clear
7:45 AM 59.0 °F 51.8 °F 77% 29.98 in 10.0 mi North 6.9 mph - N/A   Scattered Clouds
8:45 AM 64.4 °F 48.2 °F 56% 29.99 in 10.0 mi North 9.2 mph - N/A   Scattered Clouds
9:55 AM 69.8 °F 44.6 °F 40% 30.00 in 10.0 mi North 11.5 mph - N/A   Scattered Clouds
10:45 AM 71.6 °F 42.8 °F 35% 29.99 in 10.0 mi NNW 9.2 mph - N/A   Scattered Clouds
11:45 AM 71.6 °F 42.8 °F 35% 29.98 in 10.0 mi NNW 6.9 mph - N/A   Scattered Clouds
12:45 PM 75.2 °F 44.6 °F 34% 29.97 in 10.0 mi NW 10.4 mph - N/A   Scattered Clouds
1:45 PM 78.8 °F 44.6 °F 30% 29.95 in 10.0 mi NW 9.2 mph - N/A   Scattered Clouds
2:45 PM 78.8 °F 42.8 °F 28% 29.93 in 10.0 mi NW 9.2 mph - N/A   Scattered Clouds
3:45 PM 78.8 °F 44.6 °F 30% 29.92 in 10.0 mi NNW 8.1 mph - N/A   Scattered Clouds
4:45 PM 78.8 °F 44.6 °F 30% 29.90 in 10.0 mi North 10.4 mph - N/A   Scattered Clouds
5:45 PM 75.2 °F 39.2 °F 27% 29.90 in 10.0 mi North 11.5 mph - N/A   Scattered Clouds
6:45 PM 71.6 °F 44.6 °F 38% 29.90 in 10.0 mi NNW 8.1 mph - N/A   Scattered Clouds
7:45 PM 66.2 °F 44.6 °F 46% 29.90 in 10.0 mi NNW 8.1 mph - N/A   Clear
8:45 PM 62.6 °F 44.6 °F 52% 29.90 in 10.0 mi NNW 8.1 mph - N/A   Clear
9:15 PM 60.8 °F 44.6 °F 55% 29.90 in 10.0 mi North - - N/A   Overcast
9:35 PM 60.8 °F 46.4 °F 59% 29.91 in 10.0 mi North - - N/A   Overcast
9:55 PM 60.8 °F 46.4 °F 59% 29.91 in 10.0 mi North 6.9 mph - N/A   Overcast
10:15 PM 59.0 °F 46.4 °F 63% 29.91 in 10.0 mi North 5.8 mph - N/A   Scattered Clouds
10:35 PM 60.8 °F 48.2 °F 63% 29.91 in 10.0 mi North - - N/A   Clear
10:55 PM 57.2 °F 48.2 °F 72% 29.91 in 10.0 mi East 4.6 mph - N/A   Clear
11:15 PM 57.2 °F 50.0 °F 77% 29.92 in 10.0 mi Calm Calm - N/A   Scattered Clouds
11:35 PM 59.0 °F 48.2 °F 67% 29.92 in 10.0 mi North 3.5 mph - N/A   Scattered Clouds
11:55 PM 57.2 °F 48.2 °F 72% 29.92 in 10.0 mi North - - N/A   Mostly Cloudy